Location: St. Louis
(38.6270°N, 90.1994°W)
Time: 19:59:25
(UTC-06:00)

Vanguard 1 - Pass Details

Date: 01 December 2021
Orbit: 652 x 3830 km, 34.2° (Epoch: 21 January)

Event Time Altitude Azimuth Distance (km) Brightness Sun altitude
Exits shadow 05:08:21 25° 272° (W) 5,123 13.1 -21.3°
Maximum altitude 05:21:18 64° 202° (SSW) 2,798 12.2 -18.8°
Drops below altitude 10° 05:32:41 10° 124° (SE) 4,028 14.3 -16.7°
Sets 05:35:14 0° 121° (ESE) 4,702 15.1 -16.2°
